User: anonymous
Location: Vancouver
(49.2500°N, 123.1330°W)
Time: 04:36:05
(UTC-07:00)
Language:

SO-67 - Orbit

View from above orbital plane
View from above orbital plane
View from above satellite
View from above satellite

Ground track
Ground track

The orbit data is extracted from the following two-line orbital elements,

1 35870U 09049F   14244.80677206  .00007093  00000-0  21803-3 0  4683
2 35870 097.1593 263.6845 0002740 137.1669 337.0996 15.33983552275790
Epoch (UTC): 01 September 2014 19:21:45
Eccentricity: 0.0002740
inclination: 97.1593°
perigee height: 462 km
apogee height: 466 km
right ascension of ascending node: 263.6845°
argument of perigee: 137.1669°
revolutions per day: 15.33983552
mean anomaly at epoch: 337.0996°
orbit number at epoch: 27579

The dashed part of the orbit path shows where the satellite is in the earth's shadow,  

DLR